Regional Weather Roundup
Issued by NWS

Home | Current Version | Previous Version | Graphics & Text | Print | Product List | Glossary On
Versions: 1 2 3 4 5 6 7 8 9 10 11 12 13 14 15 16 17 18 19 20 21 22 23 24 25 26 27 28 29 30 31 32 33 34 35 36 37 38 39 40 41 42 43 44 45 46 47 48 49 50
000
ASUS45 KABQ 110601
RWRNM
NEW MEXICO REGIONAL WEATHER ROUNDUP
NATIONAL WEATHER SERVICE ALBUQUERQUE NM
1100 PM MST WED FEB 10 2016

NOTE: "FAIR" MEANS FEW OR NO CLOUDS BELOW 12,000 FEET AGL WITH NO
       SIGNIFICANT WEATHER OR OBSTRUCTIONS TO VISION.

      THIS PRODUCT IS RELEASED AS TWO VERSIONS.  ONE VERSION NEAR
      THE TOP OF THE HOUR CONTAINING PRELIMINARY DATA FROM ALBUQUERQUE
      AND OTHER STATIONS.  A FINAL VERSION WITH ADDITIONAL DATA IS
      ISSUED ABOUT 10 MINUTES AFTER THE HOUR.

NMZ501-503-504-510>518-110700-
NORTHWEST PLATEAU/NORTHCENTRAL MOUNTAINS

CITY           SKY/WX    TMP DP  RH WIND       PRES   REMARKS
FARMINGTON     CLOUDY    26  22  84 NE3       30.34F
6HR MIN TEMP:  26; 6HR MAX TEMP:  51;

SANTA FE       CLOUDY    37  17  44 NE5       30.31R WCI  33
6HR MIN TEMP:  34; 6HR MAX TEMP:  57;

TAOS           CLOUDY    28  21  74 CALM      30.35S

$$
NMZ402-403-502-505>509-110700-
WESTCENTRAL MOUNTAINS/SOUTHWEST MOUNTAINS

CITY           SKY/WX    TMP DP  RH WIND       PRES   REMARKS
GALLUP         CLEAR     26  21  81 CALM      30.39R
6HR MIN TEMP:  26; 6HR MAX TEMP:  59;

GRANTS         CLEAR     25  13  62 N5        30.38F WCI  19
SILVER CITY      N/A     41  18  38 N12       30.31S

$$
NMZ407-409-411-412-110700-
SOUTHERN DESERTS

CITY           SKY/WX    TMP DP  RH WIND       PRES   REMARKS
DEMING         PTCLDY    39  16  39 W5        30.27R
6HR MIN TEMP:  39; 6HR MAX TEMP:  68;

HOLLOMAN AFB   CLOUDY    38  13  36 E6        30.23S WCI  33
ALAMOGORDO     CLOUDY    41  12  30 E3        30.25R
T OR C         PTCLDY    43  15  32 NW7       30.26S
6HR MIN TEMP:  43; 6HR MAX TEMP:  67;


$$
NMZ519>523-110700-
CENTRAL VALLEYS/CENTRAL HIGHLANDS

CITY           SKY/WX    TMP DP  RH WIND       PRES   REMARKS
ALBUQUERQUE    CLOUDY    49  21  33 N5        30.32R
6HR MIN TEMP:  43; 6HR MAX TEMP:  61;

DOUBLE EAGLE   CLOUDY    32  17  54 CALM      30.33S
MORIARTY ARPT  FAIR      28  18  65 E3        30.31S
6HR MIN TEMP:  27; 6HR MAX TEMP:  58;

CLINES CORNERS CLOUDY    36  18  48 NW16      30.29R WCI  26
6HR MIN TEMP:  35; 6HR MAX TEMP:  52;

BELEN          FAIR      37  15  41 CALM      30.31R
6HR MIN TEMP:  34; 6HR MAX TEMP:  62;

SOCORRO        NOT AVBL

$$
NMZ524>526-539-540-110700-
SOUTHCENTRAL MOUNTAINS

CITY           SKY/WX    TMP DP  RH WIND       PRES   REMARKS
RUIDOSO          N/A     43  12  28 W9        30.32S

$$
NMZ527>531-110700-
NORTHEAST HIGHLANDS/NORTHEAST PLAINS

CITY           SKY/WX    TMP DP  RH WIND       PRES   REMARKS
LAS VEGAS      CLOUDY    41   8  25 N3        30.27R
6HR MIN TEMP:  36; 6HR MAX TEMP:  59;

RATON          CLOUDY    38   8  29 E8        30.22R WCI  32
6HR MIN TEMP:  36; 6HR MAX TEMP:  63;

CLAYTON        CLOUDY    53   7  15 N22G28    30.16R
6HR MIN TEMP:  48; 6HR MAX TEMP:  69;


$$
NMZ532>537-110700-
EASTCENTRAL PLAINS

CITY           SKY/WX    TMP DP  RH WIND       PRES   REMARKS
TUCUMCARI      CLEAR     46  18  32 W17       30.09R
6HR MIN TEMP:  44; 6HR MAX TEMP:  73;

CANNON AFB     NOT AVBL
CLOVIS AIRPORT CLEAR     46  18  31 W15       30.12S

$$
NMZ028-029-538-110700-
SOUTHEAST PLAINS

CITY           SKY/WX    TMP DP  RH WIND       PRES   REMARKS
ROSWELL        CLOUDY    45  18  34 VRB3      30.15S
6HR MIN TEMP:  45; 6HR MAX TEMP:  72;

ARTESIA        CLEAR     48  18  29 W15       30.16R
CARLSBAD       CLEAR     54  19  25 W14       30.13F
6HR MIN TEMP:  46; 6HR MAX TEMP:  73;

HOBBS          CLOUDY    39  16  38 S13       30.17F WCI  32


$$



USA.gov is the U.S. government's official web portal to all federal, state and local government web resources and services.